Retour au catalogue

UGATUSAT

ActifScienceSSO
NORAD 35869·PAYLOAD·🇷🇺 Russia

Lancé Sep 17, 2009 depuis Baikonur Cosmodrome

Loading…

Prochains Passages (prochaines 24 heures)

TLE

FraisSource: Space-Track

Époque: Sep 14, 2026, 15:42 UTC

1 35869U 09049E   26257.65476778  .00000040  00000-0  37085-4 0  9996
2 35869  98.7507 218.9220 0005325  52.2919 307.8741 14.23229656882150

Suivez UGATUSAT en temps réel avec AllMySat

Download on the App Store